• In Deutschland
  • Länderverzeichnis
  • Für 7 Tage
  • Wassertemperatur
  • Satellitenkarten
  • Wetterkarte
  • Widgets
  • user-avatar
    Anmelden

    Stündliche Wetter Ibigs

    Heute, 19 Juni, Dienstag

    Zeit Temperatur Niederschläge Wind Luftdruck Luftfeuchtigkeit
    00:00 +19°C° 0 mm 2 m/S 651 mmHg 55%
    01:00 +19°C° 0 mm 2 m/S 651 mmHg 55%
    02:00 +19°C° 0 mm 2 m/S 650 mmHg 56%
    03:00 +18°C° 0 mm 2 m/S 650 mmHg 57%
    04:00 +18°C° 0 mm 2 m/S 650 mmHg 57%
    05:00 +19°C° 0 mm 2 m/S 650 mmHg 57%
    06:00 +19°C° 0 mm 2 m/S 650 mmHg 56%
    07:00 +20°C° 0 mm 2 m/S 651 mmHg 56%
    08:00 +23°C° 0 mm 2 m/S 651 mmHg 50%
    09:00 +25°C° 0 mm 3 m/S 652 mmHg 44%
    10:00 +27°C° 0 mm 4 m/S 652 mmHg 38%
    11:00 +28°C° 0 mm 4 m/S 652 mmHg 37%
    12:00 +29°C° 0 mm 4 m/S 652 mmHg 36%
    13:00 +30°C° 0 mm 4 m/S 651 mmHg 35%
    14:00 +29°C° 0 mm 4 m/S 651 mmHg 37%
    15:00 +28°C° 0 mm 4 m/S 650 mmHg 39%
    16:00 +27°C° 0 mm 4 m/S 650 mmHg 41%
    17:00 +25°C° 0 mm 3 m/S 650 mmHg 47%
    18:00 +22°C° 0 mm 3 m/S 649 mmHg 53%
    19:00 +20°C° 0 mm 2 m/S 649 mmHg 59%
    20:00 +20°C° 0 mm 2 m/S 650 mmHg 58%
    21:00 +19°C° 0 mm 2 m/S 650 mmHg 57%
    22:00 +19°C° 0 mm 2 m/S 651 mmHg 55%
    23:00 +20°C° 0 mm 1 m/S 650 mmHg 54%

    Morgen, 20 Juni, Mittwoch

    Zeit Temperatur Niederschläge Wind Luftdruck Luftfeuchtigkeit
    00:00 +19°C° 0 mm 1 m/S 650 mmHg 52%
    01:00 +19°C° 0 mm 1 m/S 650 mmHg 50%
    02:00 +19°C° 0 mm 1 m/S 650 mmHg 51%
    03:00 +19°C° 0 mm 1 m/S 650 mmHg 52%
    04:00 +18°C° 0 mm 1 m/S 649 mmHg 53%
    05:00 +19°C° 0 mm 1 m/S 650 mmHg 53%
    06:00 +20°C° 0 mm 1 m/S 650 mmHg 53%
    07:00 +20°C° 0 mm 1 m/S 650 mmHg 54%
    08:00 +23°C° 0 mm 2 m/S 651 mmHg 49%
    09:00 +25°C° 0 mm 2 m/S 652 mmHg 44%
    10:00 +27°C° 0 mm 3 m/S 652 mmHg 39%
    11:00 +28°C° 0 mm 3 m/S 652 mmHg 38%
    12:00 +28°C° 0 mm 3 m/S 652 mmHg 38%
    13:00 +29°C° 0 mm 4 m/S 651 mmHg 37%
    14:00 +28°C° 0 mm 4 m/S 651 mmHg 39%
    15:00 +28°C° 0 mm 3 m/S 650 mmHg 41%
    16:00 +27°C° 0 mm 3 m/S 649 mmHg 43%
    17:00 +25°C° 0 mm 3 m/S 649 mmHg 48%
    18:00 +23°C° 0 mm 2 m/S 649 mmHg 53%
    19:00 +20°C° 0 mm 2 m/S 649 mmHg 58%
    20:00 +20°C° 0 mm 2 m/S 650 mmHg 57%
    21:00 +19°C° 0 mm 2 m/S 650 mmHg 56%
    22:00 +20°C° 0 mm 1 m/S 651 mmHg 55%
    23:00 +20°C° 0 mm 1 m/S 651 mmHg 54%

    übermorgen, 21 Juni, Donnerstag

    Zeit Temperatur Niederschläge Wind Luftdruck Luftfeuchtigkeit
    00:00 +19°C° 0 mm 1 m/S 650 mmHg 54%
    01:00 +19°C° 0 mm 1 m/S 650 mmHg 53%
    02:00 +19°C° 0 mm 1 m/S 650 mmHg 53%
    03:00 +19°C° 0 mm 1 m/S 650 mmHg 54%
    04:00 +19°C° 0 mm 1 m/S 650 mmHg 54%
    05:00 +19°C° 0 mm 1 m/S 650 mmHg 54%
    06:00 +20°C° 0 mm 1 m/S 650 mmHg 54%
    07:00 +20°C° 0 mm 1 m/S 651 mmHg 54%
    08:00 +23°C° 0 mm 2 m/S 651 mmHg 49%
    09:00 +25°C° 0 mm 2 m/S 652 mmHg 44%
    10:00 +27°C° 0 mm 3 m/S 653 mmHg 39%
    11:00 +28°C° 0 mm 3 m/S 652 mmHg 37%
    12:00 +29°C° 0 mm 3 m/S 652 mmHg 35%
    13:00 +30°C° 0 mm 3 m/S 651 mmHg 34%
    14:00 +30°C° 0 mm 2 m/S 651 mmHg 35%
    15:00 +29°C° 0 mm 2 m/S 650 mmHg 35%
    16:00 +29°C° 0 mm 2 m/S 650 mmHg 36%
    17:00 +27°C° 0 mm 2 m/S 650 mmHg 42%
    18:00 +25°C° 0 mm 2 m/S 650 mmHg 48%
    19:00 +21°C° 0 mm 2 m/S 649 mmHg 54%
    20:00 +21°C° 0 mm 2 m/S 650 mmHg 52%
    21:00 +20°C° 0 mm 2 m/S 650 mmHg 51%
    22:00 +21°C° 0 mm 1 m/S 651 mmHg 49%
    23:00 +21°C° 0 mm 1 m/S 651 mmHg 49%

    22 Juni, Freitag

    Zeit Temperatur Niederschläge Wind Luftdruck Luftfeuchtigkeit
    00:00 +20°C° 0 mm 1 m/S 650 mmHg 49%
    01:00 +20°C° 0 mm 1 m/S 650 mmHg 50%
    02:00 +20°C° 0 mm 1 m/S 650 mmHg 51%
    03:00 +19°C° 0 mm 1 m/S 649 mmHg 53%
    04:00 +19°C° 0 mm 1 m/S 649 mmHg 54%
    05:00 +20°C° 0 mm 1 m/S 650 mmHg 55%
    06:00 +20°C° 0 mm 1 m/S 650 mmHg 55%
    07:00 +21°C° 0 mm 1 m/S 651 mmHg 56%
    08:00 +23°C° 0 mm 1 m/S 651 mmHg 51%
    09:00 +25°C° 0 mm 2 m/S 652 mmHg 47%
    10:00 +27°C° 0 mm 2 m/S 652 mmHg 43%
    11:00 +27°C° 0 mm 3 m/S 652 mmHg 41%
    12:00 +28°C° 0 mm 3 m/S 651 mmHg 39%
    13:00 +29°C° 0 mm 3 m/S 651 mmHg 38%
    14:00 +29°C° 0 mm 3 m/S 650 mmHg 38%
    15:00 +29°C° 0 mm 2 m/S 650 mmHg 38%
    16:00 +29°C° 0 mm 2 m/S 649 mmHg 38%
    17:00 +27°C° 0 mm 2 m/S 649 mmHg 45%
    18:00 +25°C° 0 mm 2 m/S 649 mmHg 51%
    19:00 +21°C° 0 mm 2 m/S 649 mmHg 58%
    20:00 +22°C° 0 mm 1 m/S 649 mmHg 57%
    21:00 +21°C° 0 mm 1 m/S 650 mmHg 57%
    22:00 +21°C° 0 mm 1 m/S 650 mmHg 56%
    23:00 +20°C° 0 mm 1 m/S 650 mmHg 55%

    23 Juni, Samstag

    Zeit Temperatur Niederschläge Wind Luftdruck Luftfeuchtigkeit
    00:00 +20°C° 0 mm 1 m/S 650 mmHg 54%
    01:00 +20°C° 0 mm 1 m/S 649 mmHg 54%
    02:00 +19°C° 0 mm 1 m/S 649 mmHg 54%
    03:00 +19°C° 0 mm 1 m/S 649 mmHg 54%
    04:00 +19°C° 0 mm 1 m/S 649 mmHg 54%
    05:00 +19°C° 0 mm 1 m/S 649 mmHg 54%
    06:00 +20°C° 0 mm 1 m/S 650 mmHg 54%
    07:00 +21°C° 0 mm 1 m/S 650 mmHg 54%
    08:00 +22°C° 0 mm 1 m/S 651 mmHg 50%
    09:00 +24°C° 0 mm 1 m/S 651 mmHg 47%
    10:00 +26°C° 0 mm 2 m/S 652 mmHg 43%
    11:00 +27°C° 0 mm 2 m/S 651 mmHg 42%
    12:00 +28°C° 0 mm 2 m/S 651 mmHg 41%
    13:00 +28°C° 0 mm 2 m/S 650 mmHg 40%
    14:00 +28°C° 0 mm 2 m/S 650 mmHg 41%
    15:00 +28°C° 0 mm 2 m/S 649 mmHg 42%
    16:00 +27°C° 0 mm 2 m/S 648 mmHg 43%
    17:00 +25°C° 0 mm 1 m/S 648 mmHg 49%
    18:00 +23°C° 0 mm 1 m/S 648 mmHg 56%
    19:00 +21°C° 0 mm 1 m/S 649 mmHg 62%
    20:00 +21°C° 0 mm 1 m/S 649 mmHg 62%
    21:00 +21°C° 0 mm 1 m/S 649 mmHg 62%
    22:00 +20°C° 0 mm 1 m/S 650 mmHg 62%
    23:00 +20°C° 0,1 mm 1 m/S 649 mmHg 62%

    24 Juni, Sonntag

    Zeit Temperatur Niederschläge Wind Luftdruck Luftfeuchtigkeit
    00:00 +20°C° 0,1 mm 1 m/S 649 mmHg 62%
    01:00 +19°C° 0,1 mm 1 m/S 649 mmHg 62%
    02:00 +19°C° 0 mm 1 m/S 649 mmHg 63%
    03:00 +19°C° 0 mm 1 m/S 648 mmHg 64%
    04:00 +19°C° 0 mm 1 m/S 648 mmHg 64%
    05:00 +19°C° 0 mm 1 m/S 649 mmHg 63%
    06:00 +20°C° 0 mm 1 m/S 649 mmHg 62%
    07:00 +20°C° 0 mm 1 m/S 650 mmHg 61%
    08:00 +22°C° 0 mm 1 m/S 650 mmHg 56%
    09:00 +24°C° 0 mm 1 m/S 651 mmHg 51%
    10:00 +26°C° 0 mm 2 m/S 651 mmHg 46%
    11:00 +27°C° 0 mm 2 m/S 651 mmHg 44%
    12:00 +28°C° 0 mm 2 m/S 650 mmHg 43%
    13:00 +28°C° 0 mm 2 m/S 650 mmHg 42%
    14:00 +28°C° 0 mm 2 m/S 649 mmHg 43%
    15:00 +28°C° 0 mm 2 m/S 648 mmHg 44%
    16:00 +27°C° 0 mm 2 m/S 648 mmHg 45%
    17:00 +25°C° 0,3 mm 1 m/S 648 mmHg 50%
    18:00 +23°C° 0,3 mm 1 m/S 648 mmHg 56%
    19:00 +22°C° 0,3 mm 1 m/S 648 mmHg 62%
    20:00 +21°C° 0,4 mm 1 m/S 649 mmHg 64%
    21:00 +21°C° 0,4 mm 1 m/S 649 mmHg 65%
    22:00 +20°C° 0,4 mm 1 m/S 649 mmHg 67%
    23:00 +20°C° 0,3 mm 1 m/S 649 mmHg 69%
    Mehr zeigen